Location: Newark
(43.0400°N, 13.0400°E)
Time: 16:56:45
(UTC+00:00)

X-37B - Visible Passes

Search period start: 30 September 2020 00:00
Search period end: 10 October 2020 00:00
Orbit: 386 x 387 km, 45.0° (Epoch: 18 September)

Date Brightness Start Highest point End Pass type
(mag) Time Alt. Az. Time Alt. Az. Time Alt. Az.
01 Oct 2.8 18:33:06 10° SSW 18:34:08 17° SSW 18:34:08 17° SSW visible
02 Oct 2.5 17:35:23 10° S 17:37:27 16° SE 17:38:37 14° ESE visible
02 Oct 3.6 19:10:33 10° WSW 19:10:55 13° WSW 19:10:55 13° WSW visible
03 Oct 0.9 18:12:08 10° SW 18:15:11 45° SSE 18:15:15 45° SSE visible
04 Oct 1.8 17:13:58 10° SSW 17:16:43 27° SSE 17:19:29 10° E visible
04 Oct 2.4 18:49:59 10° W 18:51:46 30° W 18:51:46 30° W visible
05 Oct 0.5 17:51:25 10° WSW 17:54:35 73° SSE 17:55:54 32° E visible
05 Oct 4.2 19:28:09 10° W 19:28:10 10° W 19:28:10 10° W visible
06 Oct 1.2 18:29:30 10° W 18:32:15 55° NW 18:32:15 55° NW visible
07 Oct 0.6 17:30:51 10° W 17:34:02 79° NNW 17:36:16 18° ENE visible
07 Oct 3.6 19:07:40 10° WNW 19:08:32 17° WNW 19:08:32 17° WNW visible
08 Oct 0.8 18:09:02 10° W 18:12:10 57° N 18:12:31 52° NNE visible
09 Oct 0.8 17:10:22 10° W 17:13:32 63° N 17:16:30 11° ENE visible
09 Oct 2.8 18:47:09 10° WNW 18:48:46 27° WNW 18:48:46 27° WNW visible
